Winnemucca, NV

8:42 PM PDT on May 22, 2017 (GMT -0700)
Winnemucca Municipal

Weather History for KWMC - January, 2002

Change the Weather History Date:

Tuesday, January 1, 2002

  Actual Average Record
Temperature  
Mean Temperature 37 °F 29 °F  
Max Temperature 44 °F 40 °F 62 °F (1997)
Min Temperature 30 °F 17 °F -19 °F (1975)
Degree Days  
Heating Degree Days 28 36  
Month to date heating degree days 36  
Since 1 July heating degree days 2709  
Cooling Degree Days 0 0  
Month to date cooling degree days 0  
Year to date cooling degree days 0  
Moisture  
Dew Point 34 °F    
Average Humidity 88    
Maximum Humidity 97    
Minimum Humidity 71    
Precipitation  
Precipitation 0.04 in 0.03 in 0.46 in (1922)
Month to date precipitation 0.03  
Year to date precipitation 0.03  
Snow  
Snow 0.00 in 0.10 in 3.20 in (1892)
Month to date snowfall 0.1  
Since 1 July snowfall 8.9  
Snow Depth -    
Sea Level Pressure  
Sea Level Pressure 30.15 in    
Wind  
Wind Speed 7 mph (East)    
Max Wind Speed 13 mph    
Max Gust Speed -    
Visibility 10 miles    
Events Rain    
T = Trace of Precipitation, MM = Missing Value Source: NWS Daily Summary

Daily Weather History Graph

Daily Weather History Graph

Search for Another Location

Airport or City:

Trip Planner

Search our weather history database for the weather conditions in past years. The results will help you decide how hot, cold, wet, or windy it might be!

Date:

Astronomy

Jan. 01, 2002 Rise Set
Actual Time 7:15 AM PST 4:34 PM PST
Civil Twilight 6:45 AM PST 5:05 PM PST
Nautical Twilight 6:10 AM PST 5:39 PM PST
Astronomical Twilight 5:37 AM PST 6:12 PM PST
Moon 7:20 PM PST (1/1) 9:23 AM PST (1/1)
Length of Visible Light 10h 20m
Length of Day
9h 18m
Waning Gibbous, 92% of the Moon is Illuminated
Jan 1
Waning Gibbous
Jan 5
Last Quarter
Jan 13
New
Jan 21
First Quarter
Jan 28
Full

Hourly Weather History & Observations

Time (PST) Temp. Windchill Dew Point Humidity Pressure Visibility Wind Dir Wind Speed Gust Speed Precip Events Conditions
12:56 AM 30.9 °F 25.2 °F 30.0 °F 96% 30.18 in 10.0 mi South 5.8 mph - N/A   Clear
1:56 AM 32.0 °F 27.5 °F 30.0 °F 92% 30.18 in 10.0 mi ESE 4.6 mph - N/A   Clear
2:56 AM 30.9 °F 26.2 °F 28.9 °F 92% 30.19 in 10.0 mi ESE 4.6 mph - N/A   Clear
3:56 AM 32.0 °F 28.7 °F 30.0 °F 92% 30.16 in 10.0 mi ESE 3.5 mph - N/A   Clear
4:56 AM 32.0 °F 23.6 °F 30.9 °F 96% 30.17 in 10.0 mi East 10.4 mph - N/A   Mostly Cloudy
5:56 AM 33.1 °F 25.5 °F 32.0 °F 96% 30.19 in 10.0 mi ENE 9.2 mph - N/A   Overcast
6:56 AM 33.1 °F 23.9 °F 32.0 °F 96% 30.19 in 10.0 mi ENE 12.7 mph - N/A   Overcast
7:56 AM 33.1 °F 24.9 °F 30.9 °F 92% 30.19 in 10.0 mi ENE 10.4 mph - N/A   Mostly Cloudy
8:56 AM 37.0 °F 31.6 °F 33.1 °F 86% 30.19 in 10.0 mi East 6.9 mph - N/A   Clear
9:56 AM 39.0 °F 33.4 °F 34.0 °F 82% 30.20 in 10.0 mi ENE 8.1 mph - N/A   Clear
10:56 AM 42.1 °F 38.4 °F 35.1 °F 76% 30.18 in 10.0 mi ESE 5.8 mph - N/A   Clear
11:56 AM 43.0 °F 38.8 °F 35.1 °F 74% 30.15 in 10.0 mi ENE 6.9 mph - N/A   Partly Cloudy
12:56 PM 43.0 °F 37.2 °F 35.1 °F 74% 30.13 in 10.0 mi NE 10.4 mph - N/A   Mostly Cloudy
1:56 PM 44.1 °F 40.1 °F 35.1 °F 71% 30.13 in 10.0 mi ENE 6.9 mph - N/A   Overcast
2:56 PM 44.1 °F 40.8 °F 36.0 °F 73% 30.14 in 10.0 mi NE 5.8 mph - N/A   Overcast
3:56 PM 43.0 °F - 36.0 °F 76% 30.15 in 10.0 mi Calm Calm - 0.00 in Rain Light Rain
4:56 PM 39.9 °F 34.5 °F 37.9 °F 93% 30.15 in 10.0 mi SSE 8.1 mph - 0.02 in Rain Light Rain
5:56 PM 39.0 °F 31.8 °F 37.9 °F 96% 30.15 in 10.0 mi South 11.5 mph - 0.01 in Rain Light Rain
6:56 PM 37.9 °F 32.1 °F 37.0 °F 97% 30.15 in 10.0 mi ESE 8.1 mph - 0.01 in Rain Light Rain
7:56 PM 37.9 °F 30.9 °F 36.0 °F 93% 30.14 in 10.0 mi ESE 10.4 mph - 0.00 in   Scattered Clouds
8:56 PM 39.0 °F 32.8 °F 36.0 °F 89% 30.13 in 10.0 mi East 9.2 mph - N/A   Partly Cloudy
9:56 PM 36.0 °F 28.5 °F 35.1 °F 97% 30.10 in 10.0 mi East 10.4 mph - N/A   Clear
10:56 PM 36.0 °F 28.5 °F 35.1 °F 97% 30.09 in 10.0 mi ENE 10.4 mph - N/A   Partly Cloudy
11:56 PM 36.0 °F 29.0 °F 34.0 °F 93% 30.07 in 10.0 mi ENE 9.2 mph - N/A   Partly Cloudy